LGL7059 LEPA-GMMN

Flight info

Callsign LGL7059
Flight time 2h 3m
Altitude 39000
Route EPAMA DCT IXUPA N733 VLC M985 PIMOS N869 GALTO UB11 TUSOR
Aircraft B38M/M-SDE1FGHILORVWXY/HB1

Departure

Time 2026-05-06 13:47
Airport Palma de Mallorca Airport (LEPA)

Arrival

Time 2026-05-06 15:50
Airport Mohammed V International Airport (GMMN)
Time Latitude Longitude Altitude Speed Heading
2026-05-06 12:54 39.55000 2.73440 41 ft 0 kts 164°
2026-05-06 13:35 39.55014 2.73435 39 ft 3 kts 154°
2026-05-06 13:35 39.55032 2.73417 41 ft 3 kts 120°
2026-05-06 13:36 39.55036 2.73392 41 ft 3 kts 67°
2026-05-06 13:36 39.55031 2.73380 41 ft 1 kts 58°
2026-05-06 13:40 39.55039 2.73397 38 ft 4 kts 58°
2026-05-06 13:40 39.55060 2.73441 41 ft 9 kts 58°
2026-05-06 13:41 39.55107 2.73541 41 ft 16 kts 59°
2026-05-06 13:41 39.55162 2.73660 39 ft 12 kts 59°
2026-05-06 13:41 39.55168 2.73744 41 ft 8 kts 123°
2026-05-06 13:41 39.55180 2.73817 41 ft 9 kts 63°
2026-05-06 13:42 39.55179 2.73850 41 ft 0 kts 131°
2026-05-06 13:42 39.55168 2.73857 40 ft 6 kts 150°
2026-05-06 13:42 39.55090 2.73919 41 ft 19 kts 148°
2026-05-06 13:42 39.54963 2.74021 41 ft 23 kts 148°
2026-05-06 13:43 39.54849 2.74109 41 ft 18 kts 149°
2026-05-06 13:43 39.54793 2.74114 41 ft 11 kts 212°
2026-05-06 13:43 39.54743 2.74032 39 ft 13 kts 237°
2026-05-06 13:43 39.54693 2.73921 40 ft 15 kts 237°
2026-05-06 13:44 39.54631 2.73793 39 ft 18 kts 238°
2026-05-06 13:44 39.54560 2.73644 41 ft 21 kts 238°
2026-05-06 13:44 39.54482 2.73479 41 ft 23 kts 238°
2026-05-06 13:44 39.54395 2.73294 41 ft 25 kts 239°
2026-05-06 13:45 39.54326 2.73171 41 ft 8 kts 194°
2026-05-06 13:45 39.54260 2.73288 41 ft 12 kts 89°
2026-05-06 13:45 39.54263 2.73412 41 ft 15 kts 89°
2026-05-06 13:46 39.54301 2.73542 41 ft 18 kts 57°
2026-05-06 13:46 39.54398 2.73749 39 ft 47 kts 59°
2026-05-06 13:46 39.54699 2.74387 41 ft 117 kts 58°
2026-05-06 13:46 39.55225 2.75499 59 ft 168 kts 59°
2026-05-06 13:47 39.55855 2.76831 677 ft 175 kts 60°
2026-05-06 13:47 39.56470 2.78168 1585 ft 168 kts 61°
2026-05-06 13:47 39.57105 2.79563 2014 ft 196 kts 60°
2026-05-06 13:47 39.57854 2.81196 2413 ft 219 kts 60°
2026-05-06 13:48 39.58618 2.82854 3434 ft 214 kts 59°
2026-05-06 13:48 39.59396 2.84540 4150 ft 223 kts 59°
2026-05-06 13:48 39.60196 2.86274 4984 ft 224 kts 59°
2026-05-06 13:48 39.61010 2.88032 5837 ft 227 kts 59°
2026-05-06 13:49 39.61824 2.89796 6650 ft 230 kts 58°
2026-05-06 13:49 39.62822 2.91420 7387 ft 232 kts 33°
2026-05-06 13:49 39.64330 2.92022 8093 ft 231 kts 354°
2026-05-06 13:49 39.65815 2.91254 8795 ft 230 kts 313°
2026-05-06 13:50 39.66630 2.89480 9478 ft 238 kts 286°
2026-05-06 13:50 39.66913 2.87393 10326 ft 233 kts 276°
2026-05-06 13:50 39.67321 2.85328 11039 ft 241 kts 292°
2026-05-06 13:50 39.68155 2.83456 11939 ft 240 kts 291°
2026-05-06 13:51 39.68506 2.81373 12715 ft 235 kts 271°
2026-05-06 13:51 39.68584 2.79245 13509 ft 239 kts 270°
2026-05-06 13:51 39.68762 2.77092 14338 ft 241 kts 275°
2026-05-06 13:51 39.68814 2.74931 15126 ft 242 kts 265°
2026-05-06 13:52 39.69019 2.72683 15548 ft 265 kts 287°
2026-05-06 13:52 39.70033 2.70549 15948 ft 290 kts 302°
2026-05-06 13:52 39.71066 2.68248 16285 ft 302 kts 286°
2026-05-06 13:52 39.71845 2.65616 16586 ft 322 kts 288°
2026-05-06 13:53 39.72729 2.62871 17013 ft 336 kts 289°
2026-05-06 13:53 39.73653 2.60046 17640 ft 341 kts 289°
2026-05-06 13:53 39.74595 2.57199 18325 ft 345 kts 289°
2026-05-06 13:53 39.75550 2.54326 18984 ft 348 kts 289°
2026-05-06 13:54 39.76516 2.51423 19643 ft 351 kts 288°
2026-05-06 13:54 39.77484 2.48501 20279 ft 353 kts 287°
2026-05-06 13:54 39.78080 2.45441 20880 ft 349 kts 272°
2026-05-06 13:54 39.77950 2.42321 21440 ft 346 kts 257°
2026-05-06 13:55 39.77574 2.39206 22009 ft 350 kts 260°
2026-05-06 13:55 39.77266 2.36048 22592 ft 353 kts 260°
2026-05-06 13:55 39.76969 2.32868 23171 ft 356 kts 261°
2026-05-06 13:55 39.76678 2.29667 23738 ft 358 kts 261°
2026-05-06 13:56 39.76387 2.26436 24278 ft 361 kts 261°
2026-05-06 13:56 39.76097 2.23194 24815 ft 364 kts 261°
2026-05-06 13:56 39.75804 2.19918 25365 ft 365 kts 261°
2026-05-06 13:56 39.75510 2.16636 25882 ft 368 kts 261°
2026-05-06 13:57 39.75212 2.13327 26396 ft 370 kts 261°
2026-05-06 13:57 39.74911 2.10001 26902 ft 371 kts 261°
2026-05-06 13:57 39.74608 2.06656 27391 ft 373 kts 260°
2026-05-06 13:57 39.74303 2.03300 27833 ft 376 kts 260°
2026-05-06 13:58 39.73994 1.99917 28280 ft 378 kts 260°
2026-05-06 13:58 39.73684 1.96526 28721 ft 379 kts 260°
2026-05-06 13:58 39.73370 1.93110 29129 ft 382 kts 260°
2026-05-06 13:58 39.73059 1.89725 29551 ft 383 kts 260°
2026-05-06 13:59 39.72736 1.86234 29952 ft 385 kts 260°
2026-05-06 13:59 39.72415 1.82773 30358 ft 387 kts 260°
2026-05-06 13:59 39.72091 1.79294 30722 ft 389 kts 260°
2026-05-06 13:59 39.71765 1.75801 31083 ft 391 kts 260°
2026-05-06 14:00 39.71437 1.72293 31441 ft 393 kts 260°
2026-05-06 14:00 39.71109 1.68806 31759 ft 395 kts 260°
2026-05-06 14:00 39.70774 1.65261 32090 ft 397 kts 260°
2026-05-06 14:00 39.70437 1.61698 32419 ft 399 kts 260°
2026-05-06 14:01 39.70097 1.58121 32828 ft 398 kts 260°
2026-05-06 14:01 39.69756 1.54556 33282 ft 397 kts 260°
2026-05-06 14:01 39.69418 1.51018 33731 ft 395 kts 260°
2026-05-06 14:01 39.69078 1.47483 34178 ft 394 kts 260°
2026-05-06 14:02 39.68738 1.43962 34620 ft 392 kts 260°
2026-05-06 14:02 39.68399 1.40458 34975 ft 392 kts 260°
2026-05-06 14:02 39.68057 1.36940 35304 ft 392 kts 260°
2026-05-06 14:02 39.67716 1.33428 35631 ft 392 kts 260°
2026-05-06 14:03 39.67373 1.29911 35928 ft 393 kts 260°
2026-05-06 14:03 39.67028 1.26394 36240 ft 393 kts 260°
2026-05-06 14:03 39.66682 1.22868 36512 ft 394 kts 260°
2026-05-06 14:03 39.66335 1.19342 36772 ft 394 kts 260°
2026-05-06 14:04 39.65987 1.15815 36957 ft 395 kts 260°
2026-05-06 14:04 39.65638 1.12296 36947 ft 390 kts 260°
2026-05-06 14:04 39.64949 1.05376 36942 ft 385 kts 260°
2026-05-06 14:05 39.64260 0.98487 36944 ft 385 kts 260°
2026-05-06 14:05 39.63565 0.91586 36943 ft 386 kts 260°
2026-05-06 14:06 39.62866 0.84690 36942 ft 386 kts 260°
2026-05-06 14:06 39.62163 0.77791 36944 ft 386 kts 260°
2026-05-06 14:07 39.61455 0.70885 36949 ft 386 kts 260°
2026-05-06 14:07 39.60744 0.63994 36944 ft 385 kts 260°
2026-05-06 14:08 39.60029 0.57109 36944 ft 385 kts 260°
2026-05-06 14:08 39.59310 0.50219 36948 ft 385 kts 260°
2026-05-06 14:09 39.58586 0.43324 36951 ft 386 kts 260°
2026-05-06 14:09 39.57857 0.36420 36953 ft 387 kts 260°
2026-05-06 14:10 39.57129 0.29563 36952 ft 386 kts 259°
2026-05-06 14:10 39.56387 0.22614 36953 ft 387 kts 259°
2026-05-06 14:11 39.55650 0.15762 36953 ft 387 kts 259°
2026-05-06 14:11 39.54905 0.08860 36952 ft 387 kts 259°
2026-05-06 14:12 39.54154 0.01954 36954 ft 387 kts 259°
2026-05-06 14:12 39.53402 -0.04932 36956 ft 386 kts 260°
2026-05-06 14:13 39.52647 -0.11797 36952 ft 384 kts 260°
2026-05-06 14:13 39.51890 -0.18642 36954 ft 384 kts 260°
2026-05-06 14:14 39.51129 -0.25489 36953 ft 384 kts 260°
2026-05-06 14:14 39.50364 -0.32338 36952 ft 384 kts 259°
2026-05-06 14:15 39.49596 -0.39179 36942 ft 384 kts 259°
2026-05-06 14:15 39.48782 -0.46010 36940 ft 383 kts 254°
2026-05-06 14:16 39.47750 -0.49150 36952 ft 381 kts 238°
2026-05-06 14:16 39.46231 -0.51973 36957 ft 383 kts 236°
2026-05-06 14:16 39.43120 -0.57532 36962 ft 384 kts 235°
2026-05-06 14:17 39.39896 -0.63096 36939 ft 384 kts 234°
2026-05-06 14:17 39.36693 -0.68560 36965 ft 384 kts 234°
2026-05-06 14:18 39.33439 -0.74092 36959 ft 384 kts 234°
2026-05-06 14:18 39.30229 -0.79538 36962 ft 384 kts 234°
2026-05-06 14:19 39.26992 -0.85020 36965 ft 384 kts 234°
2026-05-06 14:19 39.23759 -0.90487 36961 ft 384 kts 234°
2026-05-06 14:20 39.20510 -0.95970 36954 ft 384 kts 234°
2026-05-06 14:20 39.17268 -1.01432 36951 ft 384 kts 234°
2026-05-06 14:21 39.14019 -1.06897 36950 ft 384 kts 234°
2026-05-06 14:21 39.10771 -1.12352 36954 ft 384 kts 234°
2026-05-06 14:22 39.07517 -1.17806 36952 ft 384 kts 234°
2026-05-06 14:22 39.04267 -1.23246 36951 ft 383 kts 234°
2026-05-06 14:23 39.01020 -1.28671 36948 ft 383 kts 234°
2026-05-06 14:23 38.97765 -1.34099 36942 ft 382 kts 234°
2026-05-06 14:24 38.94515 -1.39510 36944 ft 383 kts 234°
2026-05-06 14:24 38.91259 -1.44923 36937 ft 382 kts 234°
2026-05-06 14:25 38.88011 -1.50312 36936 ft 381 kts 234°
2026-05-06 14:25 38.84759 -1.55699 36934 ft 382 kts 234°
2026-05-06 14:26 38.81508 -1.61078 36936 ft 382 kts 234°
2026-05-06 14:26 38.78253 -1.66452 36936 ft 382 kts 234°
2026-05-06 14:27 38.74995 -1.71823 36933 ft 382 kts 234°
2026-05-06 14:27 38.71732 -1.77193 36936 ft 381 kts 234°
2026-05-06 14:28 38.69023 -1.81641 36939 ft 380 kts 234°
2026-05-06 14:28 38.65748 -1.87012 36932 ft 380 kts 234°
2026-05-06 14:29 38.62495 -1.92337 36934 ft 380 kts 234°
2026-05-06 14:29 38.59235 -1.97665 36937 ft 380 kts 234°
2026-05-06 14:30 38.55975 -2.02985 36933 ft 380 kts 234°
2026-05-06 14:30 38.52706 -2.08311 36934 ft 381 kts 234°
2026-05-06 14:31 38.49433 -2.13637 36934 ft 381 kts 234°
2026-05-06 14:31 38.46156 -2.18960 36932 ft 381 kts 234°
2026-05-06 14:32 38.42875 -2.24281 36939 ft 381 kts 233°
2026-05-06 14:32 38.39596 -2.29591 36933 ft 381 kts 233°
2026-05-06 14:33 38.36299 -2.34891 36916 ft 382 kts 231°
2026-05-06 14:33 38.32602 -2.39779 36905 ft 383 kts 229°
2026-05-06 14:34 38.28940 -2.44690 36930 ft 383 kts 229°
2026-05-06 14:34 38.25307 -2.49583 36931 ft 383 kts 229°
2026-05-06 14:35 38.21651 -2.54501 36914 ft 383 kts 229°
2026-05-06 14:35 38.17994 -2.59413 36925 ft 383 kts 229°
2026-05-06 14:36 38.14333 -2.64324 36928 ft 383 kts 229°
2026-05-06 14:36 38.10669 -2.69230 36934 ft 383 kts 229°
2026-05-06 14:37 38.06998 -2.74138 36942 ft 384 kts 229°
2026-05-06 14:37 38.03321 -2.79046 36941 ft 384 kts 229°
2026-05-06 14:38 37.99645 -2.83947 36953 ft 384 kts 229°
2026-05-06 14:38 37.95973 -2.88834 36929 ft 381 kts 229°
2026-05-06 14:39 37.92313 -2.93672 36934 ft 381 kts 229°
2026-05-06 14:39 37.88651 -2.98509 36942 ft 380 kts 229°
2026-05-06 14:40 37.84984 -3.03345 36938 ft 381 kts 229°
2026-05-06 14:40 37.81315 -3.08177 36913 ft 380 kts 229°
2026-05-06 14:41 37.77643 -3.13005 36918 ft 381 kts 229°
2026-05-06 14:41 37.73967 -3.17832 36922 ft 381 kts 229°
2026-05-06 14:42 37.70287 -3.22655 36932 ft 381 kts 229°
2026-05-06 14:42 37.66604 -3.27476 36929 ft 381 kts 229°
2026-05-06 14:43 37.62920 -3.32290 36940 ft 381 kts 229°
2026-05-06 14:43 37.59232 -3.37103 36933 ft 381 kts 229°
2026-05-06 14:44 37.55547 -3.41905 36935 ft 381 kts 228°
2026-05-06 14:45 37.50016 -3.49097 36934 ft 381 kts 228°
2026-05-06 14:45 37.46323 -3.53890 36937 ft 381 kts 228°
2026-05-06 14:46 37.42623 -3.58685 36932 ft 382 kts 228°
2026-05-06 14:46 37.38918 -3.63480 36930 ft 382 kts 228°
2026-05-06 14:47 37.35212 -3.68268 36933 ft 382 kts 228°
2026-05-06 14:47 37.31500 -3.73056 36904 ft 382 kts 228°
2026-05-06 14:48 37.27816 -3.77802 36908 ft 382 kts 228°
2026-05-06 14:48 37.24107 -3.82573 36906 ft 382 kts 228°
2026-05-06 14:49 37.20394 -3.87342 36904 ft 382 kts 228°
2026-05-06 14:49 37.16677 -3.92109 36908 ft 382 kts 228°
2026-05-06 14:50 37.12962 -3.96866 36922 ft 382 kts 228°
2026-05-06 14:50 37.09240 -4.01626 36911 ft 382 kts 228°
2026-05-06 14:51 37.05502 -4.06396 36903 ft 385 kts 228°
2026-05-06 14:51 37.01757 -4.11173 36904 ft 384 kts 228°
2026-05-06 14:52 36.98011 -4.15941 36880 ft 382 kts 228°
2026-05-06 14:52 36.94269 -4.20695 36903 ft 384 kts 227°
2026-05-06 14:53 36.90516 -4.25457 36900 ft 384 kts 227°
2026-05-06 14:53 36.86759 -4.30218 36883 ft 384 kts 227°
2026-05-06 14:54 36.83002 -4.34975 36886 ft 384 kts 227°
2026-05-06 14:54 36.78745 -4.39024 36892 ft 388 kts 217°
2026-05-06 14:55 36.74239 -4.42673 36892 ft 389 kts 216°
2026-05-06 14:55 36.69677 -4.46310 36883 ft 389 kts 216°
2026-05-06 14:56 36.65119 -4.49929 36888 ft 389 kts 216°
2026-05-06 14:56 36.60547 -4.53553 36887 ft 390 kts 216°
2026-05-06 14:57 36.55969 -4.57177 36882 ft 390 kts 216°
2026-05-06 14:57 36.51394 -4.60792 36889 ft 390 kts 216°
2026-05-06 14:58 36.46817 -4.64404 36889 ft 389 kts 216°
2026-05-06 14:58 36.42243 -4.68010 36890 ft 390 kts 216°
2026-05-06 14:59 36.37663 -4.71614 36894 ft 389 kts 216°
2026-05-06 14:59 36.33084 -4.75213 36893 ft 390 kts 216°
2026-05-06 15:00 36.28507 -4.78805 36897 ft 390 kts 216°
2026-05-06 15:00 36.23922 -4.82397 36898 ft 390 kts 216°
2026-05-06 15:01 36.19333 -4.85990 36908 ft 391 kts 216°
2026-05-06 15:01 36.14767 -4.89570 36917 ft 385 kts 216°
2026-05-06 15:02 36.10303 -4.93109 36900 ft 384 kts 216°
2026-05-06 15:02 36.05798 -4.96671 36905 ft 385 kts 216°
2026-05-06 15:03 36.01279 -5.00239 36914 ft 385 kts 216°
2026-05-06 15:03 35.96773 -5.03793 36920 ft 381 kts 216°
2026-05-06 15:04 35.92351 -5.07275 36914 ft 375 kts 216°
2026-05-06 15:04 35.87949 -5.10736 36907 ft 375 kts 216°
2026-05-06 15:05 35.83541 -5.14181 36920 ft 376 kts 215°
2026-05-06 15:05 35.79064 -5.17512 36917 ft 376 kts 215°
2026-05-06 15:06 35.74590 -5.20849 36916 ft 376 kts 215°
2026-05-06 15:06 35.70118 -5.24181 36914 ft 376 kts 215°
2026-05-06 15:07 35.65675 -5.27491 36911 ft 375 kts 215°
2026-05-06 15:07 35.61211 -5.30810 36920 ft 375 kts 215°
2026-05-06 15:08 35.56980 -5.34488 36921 ft 372 kts 219°
2026-05-06 15:08 35.52792 -5.38233 36909 ft 373 kts 219°
2026-05-06 15:09 35.48586 -5.41961 36911 ft 373 kts 219°
2026-05-06 15:09 35.44388 -5.45673 36914 ft 371 kts 219°
2026-05-06 15:10 35.40196 -5.49374 36910 ft 371 kts 219°
2026-05-06 15:10 35.36008 -5.53067 36916 ft 370 kts 219°
2026-05-06 15:11 35.31824 -5.56750 36935 ft 370 kts 219°
2026-05-06 15:11 35.27649 -5.60422 36928 ft 369 kts 219°
2026-05-06 15:12 35.23484 -5.64080 36916 ft 368 kts 219°
2026-05-06 15:12 35.19307 -5.67744 36932 ft 366 kts 219°
2026-05-06 15:13 35.15192 -5.71349 36915 ft 366 kts 219°
2026-05-06 15:13 35.11084 -5.74943 36942 ft 365 kts 219°
2026-05-06 15:14 35.06946 -5.78559 36934 ft 363 kts 219°
2026-05-06 15:14 35.02844 -5.82139 36936 ft 361 kts 219°
2026-05-06 15:15 34.99419 -5.85125 36929 ft 360 kts 220°
2026-05-06 15:15 34.95372 -5.88649 36908 ft 360 kts 220°
2026-05-06 15:16 34.91312 -5.92181 36908 ft 357 kts 220°
2026-05-06 15:16 34.87474 -5.95969 36932 ft 354 kts 223°
2026-05-06 15:17 34.83667 -5.99757 36932 ft 352 kts 223°
2026-05-06 15:17 34.79860 -6.03522 36931 ft 354 kts 223°
2026-05-06 15:18 34.76036 -6.07300 36937 ft 354 kts 223°
2026-05-06 15:18 34.72230 -6.11054 36908 ft 352 kts 223°
2026-05-06 15:19 34.68428 -6.14800 36916 ft 351 kts 223°
2026-05-06 15:19 34.64642 -6.18525 36927 ft 349 kts 223°
2026-05-06 15:20 34.60868 -6.22233 36930 ft 348 kts 223°
2026-05-06 15:20 34.57105 -6.25928 36932 ft 348 kts 223°
2026-05-06 15:21 34.53368 -6.29591 36914 ft 335 kts 223°
2026-05-06 15:21 34.51596 -6.31327 36808 ft 322 kts 223°
2026-05-06 15:21 34.49707 -6.32794 36249 ft 329 kts 210°
2026-05-06 15:21 34.47522 -6.33723 35754 ft 335 kts 207°
2026-05-06 15:22 34.45295 -6.34609 35309 ft 339 kts 206°
2026-05-06 15:22 34.43037 -6.35458 34804 ft 339 kts 206°
2026-05-06 15:22 34.40785 -6.36277 34365 ft 336 kts 206°
2026-05-06 15:23 34.36310 -6.37845 34101 ft 331 kts 206°
2026-05-06 15:23 34.34091 -6.38629 33406 ft 334 kts 206°
2026-05-06 15:23 34.31854 -6.39420 32743 ft 336 kts 205°
2026-05-06 15:23 34.29612 -6.40208 32185 ft 335 kts 205°
2026-05-06 15:24 34.27382 -6.40992 31715 ft 332 kts 205°
2026-05-06 15:24 34.25169 -6.41768 31249 ft 330 kts 204°
2026-05-06 15:24 34.22972 -6.42539 30772 ft 328 kts 204°
2026-05-06 15:24 34.20788 -6.43306 30304 ft 327 kts 204°
2026-05-06 15:25 34.18601 -6.44072 29811 ft 327 kts 203°
2026-05-06 15:25 34.16424 -6.44836 29351 ft 326 kts 203°
2026-05-06 15:25 34.14242 -6.45600 28882 ft 326 kts 202°
2026-05-06 15:25 34.12066 -6.46362 28434 ft 325 kts 202°
2026-05-06 15:26 34.09897 -6.47120 27981 ft 324 kts 202°
2026-05-06 15:26 34.07735 -6.47875 27542 ft 323 kts 202°
2026-05-06 15:26 34.05576 -6.48630 27118 ft 323 kts 202°
2026-05-06 15:26 34.03428 -6.49380 26687 ft 321 kts 202°
2026-05-06 15:27 34.01281 -6.50130 26276 ft 321 kts 201°
2026-05-06 15:27 33.99140 -6.50877 25864 ft 321 kts 201°
2026-05-06 15:27 33.97103 -6.51930 25353 ft 317 kts 218°
2026-05-06 15:27 33.95464 -6.53669 24960 ft 313 kts 225°
2026-05-06 15:28 33.93870 -6.55438 24614 ft 310 kts 225°
2026-05-06 15:28 33.92306 -6.57213 24235 ft 308 kts 225°
2026-05-06 15:28 33.90756 -6.58994 23845 ft 307 kts 225°
2026-05-06 15:28 33.89205 -6.60792 23466 ft 313 kts 226°
2026-05-06 15:29 33.87640 -6.62617 23056 ft 313 kts 226°
2026-05-06 15:29 33.86083 -6.64436 22670 ft 311 kts 226°
2026-05-06 15:29 33.84533 -6.66248 22284 ft 310 kts 226°
2026-05-06 15:29 33.82988 -6.68057 21895 ft 309 kts 226°
2026-05-06 15:30 33.81452 -6.69853 21514 ft 308 kts 226°
2026-05-06 15:30 33.79920 -6.71644 21139 ft 306 kts 225°
2026-05-06 15:30 33.78397 -6.73423 20762 ft 305 kts 225°
2026-05-06 15:30 33.76880 -6.75195 20397 ft 303 kts 225°
2026-05-06 15:31 33.75375 -6.76953 20043 ft 301 kts 225°
2026-05-06 15:31 33.73879 -6.78698 19681 ft 299 kts 225°
2026-05-06 15:31 33.72392 -6.80431 19329 ft 297 kts 225°
2026-05-06 15:32 33.69450 -6.83859 18645 ft 293 kts 225°
2026-05-06 15:32 33.68013 -6.85532 18310 ft 291 kts 225°
2026-05-06 15:32 33.66566 -6.87216 17972 ft 289 kts 225°
2026-05-06 15:32 33.65092 -6.88842 17595 ft 289 kts 217°
2026-05-06 15:33 33.63234 -6.89858 17234 ft 290 kts 201°
2026-05-06 15:33 33.61362 -6.90631 16927 ft 287 kts 202°
2026-05-06 15:33 33.59447 -6.91419 16599 ft 288 kts 201°
2026-05-06 15:33 33.57528 -6.92196 16271 ft 294 kts 201°
2026-05-06 15:34 33.55575 -6.92977 15932 ft 296 kts 201°
2026-05-06 15:34 33.53650 -6.93743 15607 ft 294 kts 201°
2026-05-06 15:34 33.51716 -6.94509 15277 ft 292 kts 201°
2026-05-06 15:34 33.49797 -6.95269 14952 ft 290 kts 201°
2026-05-06 15:35 33.47891 -6.96022 14637 ft 287 kts 201°
2026-05-06 15:35 33.46001 -6.96769 14307 ft 285 kts 201°
2026-05-06 15:35 33.44126 -6.97509 13981 ft 283 kts 201°
2026-05-06 15:35 33.42266 -6.98242 13669 ft 280 kts 201°
2026-05-06 15:36 33.40419 -6.98970 13360 ft 278 kts 200°
2026-05-06 15:36 33.38591 -6.99691 13049 ft 276 kts 200°
2026-05-06 15:36 33.36778 -7.00405 12741 ft 273 kts 200°
2026-05-06 15:36 33.34979 -7.01114 12435 ft 271 kts 200°
2026-05-06 15:37 33.33188 -7.01818 12131 ft 269 kts 200°
2026-05-06 15:37 33.31418 -7.02515 11826 ft 267 kts 200°
2026-05-06 15:37 33.29647 -7.03212 11525 ft 270 kts 200°
2026-05-06 15:37 33.27843 -7.03921 11220 ft 276 kts 200°
2026-05-06 15:38 33.26001 -7.04645 10912 ft 280 kts 200°
2026-05-06 15:38 33.24145 -7.05374 10597 ft 281 kts 200°
2026-05-06 15:38 33.22281 -7.06107 10277 ft 282 kts 200°
2026-05-06 15:38 33.20432 -7.06865 10062 ft 279 kts 205°
2026-05-06 15:39 33.18906 -7.08226 9819 ft 274 kts 231°
2026-05-06 15:39 33.18036 -7.10217 9517 ft 271 kts 255°
2026-05-06 15:39 33.17635 -7.12404 9224 ft 269 kts 258°
2026-05-06 15:39 33.17263 -7.14581 8921 ft 267 kts 259°
2026-05-06 15:40 33.16906 -7.16747 8613 ft 266 kts 259°
2026-05-06 15:40 33.16557 -7.18910 8306 ft 265 kts 259°
2026-05-06 15:40 33.16215 -7.21061 8009 ft 263 kts 259°
2026-05-06 15:40 33.15878 -7.23205 7707 ft 262 kts 259°
2026-05-06 15:41 33.15544 -7.25333 7409 ft 260 kts 259°
2026-05-06 15:41 33.15212 -7.27452 7115 ft 258 kts 260°
2026-05-06 15:41 33.14882 -7.29563 6785 ft 259 kts 260°
2026-05-06 15:41 33.14555 -7.31647 6463 ft 259 kts 260°
2026-05-06 15:42 33.14223 -7.33755 6161 ft 259 kts 260°
2026-05-06 15:42 33.13893 -7.35862 5868 ft 257 kts 260°
2026-05-06 15:42 33.13564 -7.37959 5564 ft 257 kts 260°
2026-05-06 15:42 33.13235 -7.40051 5282 ft 255 kts 260°
2026-05-06 15:43 33.12912 -7.42097 5186 ft 245 kts 260°
2026-05-06 15:43 33.12603 -7.44057 5043 ft 236 kts 260°
2026-05-06 15:43 33.12305 -7.45951 4927 ft 229 kts 260°
2026-05-06 15:43 33.12020 -7.47782 4802 ft 220 kts 263°
2026-05-06 15:44 33.12186 -7.49527 4625 ft 209 kts 296°
2026-05-06 15:44 33.13094 -7.50766 4523 ft 194 kts 328°
2026-05-06 15:44 33.14284 -7.51406 4415 ft 181 kts 339°
2026-05-06 15:44 33.15439 -7.51882 4298 ft 172 kts 341°
2026-05-06 15:45 33.16579 -7.52296 4201 ft 170 kts 343°
2026-05-06 15:45 33.17718 -7.52691 4074 ft 171 kts 343°
2026-05-06 15:45 33.18857 -7.53083 3874 ft 171 kts 343°
2026-05-06 15:45 33.19999 -7.53476 3664 ft 171 kts 343°
2026-05-06 15:46 33.21138 -7.53867 3446 ft 170 kts 343°
2026-05-06 15:46 33.22273 -7.54255 3232 ft 168 kts 343°
2026-05-06 15:46 33.23399 -7.54638 3021 ft 169 kts 343°
2026-05-06 15:46 33.24524 -7.55024 2798 ft 168 kts 343°
2026-05-06 15:47 33.25635 -7.55408 2578 ft 165 kts 343°
2026-05-06 15:47 33.26733 -7.55781 2393 ft 161 kts 343°
2026-05-06 15:47 33.27770 -7.56136 2193 ft 147 kts 344°
2026-05-06 15:47 33.28729 -7.56464 1982 ft 140 kts 344°
2026-05-06 15:48 33.29640 -7.56785 1762 ft 135 kts 343°
2026-05-06 15:48 33.30537 -7.57100 1571 ft 134 kts 345°
2026-05-06 15:48 33.31436 -7.57397 1417 ft 134 kts 345°
2026-05-06 15:48 33.32354 -7.57696 1252 ft 138 kts 345°
2026-05-06 15:49 33.33280 -7.58024 1078 ft 139 kts 342°
2026-05-06 15:49 33.34207 -7.58341 846 ft 138 kts 345°
2026-05-06 15:49 33.35133 -7.58661 702 ft 139 kts 345°
2026-05-06 15:49 33.36011 -7.58961 656 ft 114 kts 344°
2026-05-06 15:50 33.36531 -7.59136 652 ft 45 kts 344°
2026-05-06 15:50 33.36790 -7.59225 651 ft 40 kts 344°
2026-05-06 15:50 33.37011 -7.59301 656 ft 29 kts 344°
2026-05-06 15:50 33.37192 -7.59324 652 ft 15 kts 13°
2026-05-06 15:51 33.37198 -7.59323 652 ft 0 kts 13°
2026-05-06 15:51 33.37200 -7.59324 652 ft 1 kts 349°
2026-05-06 15:51 33.37230 -7.59341 654 ft 7 kts 330°
2026-05-06 15:51 33.37287 -7.59377 656 ft 12 kts 339°
2026-05-06 15:52 33.37408 -7.59426 654 ft 24 kts 342°
2026-05-06 15:52 33.37588 -7.59494 654 ft 29 kts 342°
2026-05-06 15:52 33.37705 -7.59508 651 ft 11 kts 37°
2026-05-06 15:52 33.37739 -7.59410 649 ft 14 kts 73°
2026-05-06 15:53 33.37751 -7.59362 649 ft 0 kts 73°
2026-05-06 15:53 33.37752 -7.59357 649 ft 2 kts 73°
2026-05-06 15:53 33.37762 -7.59318 651 ft 7 kts 73°
2026-05-06 15:53 33.37779 -7.59248 650 ft 10 kts 73°
2026-05-06 15:54 33.37803 -7.59149 648 ft 15 kts 73°
2026-05-06 15:54 33.37835 -7.59021 649 ft 17 kts 73°
2026-05-06 15:54 33.37871 -7.58878 650 ft 18 kts 73°
2026-05-06 15:54 33.37909 -7.58725 649 ft 20 kts 76°
2026-05-06 15:55 33.37870 -7.58594 651 ft 17 kts 126°
2026-05-06 15:55 33.37779 -7.58486 650 ft 19 kts 156°
2026-05-06 15:55 33.37680 -7.58448 650 ft 8 kts 164°
2026-05-06 15:55 33.37613 -7.58439 650 ft 11 kts 177°
2026-05-06 15:56 33.37543 -7.58420 650 ft 6 kts 162°
2026-05-06 15:56 33.37508 -7.58398 651 ft 6 kts 121°
2026-05-06 15:56 33.37523 -7.58345 653 ft 8 kts 59°
2026-05-06 15:56 33.37535 -7.58319 652 ft 0 kts 61°